Location: Hilton Head Island
(32.2163°N, 80.7526°W)
Time: 13:31:13
(UTC-04:00)

Transit 2A Rocket - Pass Details

Date: 07 February 2026
Orbit: 583 x 900 km, 66.7° (Epoch: 12 March)

Event Time Altitude Azimuth Distance (km) Brightness Sun altitude
Rises 20:13:42 0° 262° (W) 3,470 9.6 -28.2°
Reaches altitude 10° 20:18:09 10° 293° (WNW) 2,566 8.5 -29.1°
Maximum altitude 20:20:13 12° 313° (NW) 2,448 8.1 -29.6°
Drops below altitude 10° 20:22:18 10° 334° (NNW) 2,577 8.0 -30.0°
Sets 20:26:50 0° 5° (N) 3,506 8.4 -31.0°
Enters shadow 20:26:51 - 5° (N) 3,510 8.4 -31.0°
